Dassault Systemes SA Pre-Tax Profit Margin 2010-2023 | DASTY

Current and historical pre-tax profit margin for Dassault Systemes SA (DASTY) from 2010 to 2023. Pre-tax profit margin can be defined as earnings before taxes as a portion of total revenue. Dassault Systemes SA pre-tax profit margin for the three months ending September 30, 2023 was .
Dassault Systemes SA Pre-Tax Profit Margin Historical Data
Date TTM Revenue TTM Pre-Tax Income Pre-Tax Margin
2023-09-30 $4.47B $0.93B 20.88%
2023-03-31 $5.98B $1.34B 22.48%
2022-09-30 $5.81B $1.28B 22.01%
2022-03-31 $5.82B $1.28B 22.05%
2021-12-31 $5.75B $1.19B 20.66%
2021-09-30 $5.63B $1.15B 20.40%
2021-06-30 $5.47B $1.01B 18.53%
2021-03-31 $5.25B $0.85B 16.27%
2020-12-31 $5.09B $0.74B 14.51%
2020-09-30 $4.95B $0.66B 13.24%
2020-06-30 $4.76B $0.73B 15.36%
2020-03-31 $4.66B $0.82B 17.61%
2019-12-31 $4.50B $0.91B 20.29%
2019-09-30 $4.39B $1.01B 22.95%
2019-06-30 $4.33B $1.00B 23.06%
2019-03-31 $4.25B $1.01B 23.81%
2018-12-31 $4.11B $0.93B 22.55%
2018-09-30 $3.98B $0.92B 23.02%
2018-06-30 $3.90B $0.89B 22.94%
2018-03-31 $3.79B $0.88B 23.22%
2017-12-31 $3.65B $0.85B 23.27%
2017-09-30 $3.53B $0.78B 22.09%
2017-06-30 $3.46B $0.77B 22.29%
2017-03-31 $3.43B $0.74B 21.67%
2016-12-31 $3.38B $0.73B 21.68%
2016-09-30 $3.25B $0.71B 21.96%
2016-06-30 $3.18B $0.70B 21.96%
2016-03-31 $3.12B $0.70B 22.51%
2015-12-31 $3.15B $0.70B 22.29%
2015-09-30 $3.11B $0.66B 21.23%
2015-06-30 $3.07B $0.64B 20.82%
2015-03-31 $3.03B $0.60B 19.89%
2014-12-31 $2.93B $0.59B 20.22%
2014-09-30 $2.92B $0.63B 21.47%
2014-06-30 $2.89B $0.64B 22.12%
2014-03-31 $2.83B $0.66B 23.40%
2013-12-31 $2.77B $0.69B 25.01%
2013-09-30 $2.77B $0.68B 24.40%
2013-06-30 $2.73B $0.67B 24.43%
2013-03-31 $2.65B $0.67B 25.17%
2012-12-31 $2.63B $0.67B 25.42%
2012-09-30 $2.55B $0.63B 24.91%
2012-06-30 $2.50B $0.64B 25.69%
2012-03-31 $2.51B $0.61B 24.48%
2011-12-31 $2.46B $0.60B 24.29%
2011-09-30 $2.41B $0.59B 24.44%
2011-06-30 $2.33B $0.53B 22.56%
2011-03-31 $2.21B $0.48B 21.59%
2010-12-31 $2.07B $0.43B 20.54%
2010-09-30 $1.94B $0.39B 20.02%
2010-06-30 $1.85B $0.38B 20.35%
2010-03-31 $1.79B $0.34B 19.04%
2009-12-31 $1.78B $0.32B 17.81%
Sector Industry Market Cap Revenue
Computer and Technology Computer Software $55.545B $6.441B
Dassault Systemes is a worldwide recognized leader in CAD/CAM/CAE and PDM II markets. The company's mission to provide solutions to enable customersto build their digital enterprise, by defining, simulating, managing and optimizing concurrently product, manufacturing process, and resources. In this virtual space, customers create innovative, high quality, safe and affordable products. The company delivers scaleable process and design-centric solutions on both Unix and Windows NT environments.
Stock Name Country Market Cap PE Ratio
Microsoft (MSFT) United States $3134.901B 38.15
Oracle (ORCL) United States $332.871B 27.09
Salesforce (CRM) United States $285.490B 47.62
Adobe (ADBE) United States $212.392B 35.51
Intuit (INTU) United States $173.911B 58.32
Synopsys (SNPS) United States $84.967B 61.29
Cadence Design Systems (CDNS) United States $83.264B 75.89
Autodesk (ADSK) United States $50.690B 49.89
ANSYS (ANSS) United States $29.176B 49.22
MicroStrategy (MSTR) United States $25.106B 50.02
PTC (PTC) United States $21.527B 63.40
SS&C Technologies Holdings (SSNC) United States $15.324B 15.09
Manhattan Associates (MANH) United States $14.641B 84.33
Open Text (OTEX) Canada $9.681B 10.39
Descartes Systems Group (DSGX) Canada $7.550B 66.20
Trend Micro (TMICY) Japan $7.360B 65.30
Pegasystems (PEGA) United States $5.067B 69.41
CommVault Systems (CVLT) United States $4.224B 75.38
Blackbaud (BLKB) United States $4.103B 36.71
ACI Worldwide (ACIW) United States $3.405B 17.49
Progress Software (PRGS) United States $2.237B 14.01
Verint Systems (VRNT) United States $1.906B 17.59
BlackBerry (BB) Canada $1.797B 0.00
Sapiens (SPNS) Israel $1.693B 23.99
PROS Holdings (PRO) United States $1.679B 0.00
Simulations Plus (SLP) United States $0.930B 68.41
Magic Software Enterprises (MGIC) Israel $0.576B 11.86
Rand Worldwide (RWWI) United States $0.573B 0.00
American Software (AMSWA) United States $0.374B 31.25
Canaan (CAN) China $0.280B 0.00
OptimizeRx (OPRX) United States $0.195B 0.00
Rigetti Computing (RGTI) United States $0.187B 0.00
Icad Inc (ICAD) United States $0.045B 0.00
NetSol Technologies (NTWK) United States $0.031B 0.00
Hanryu Holdings (HRYU) South Korea $0.026B 0.00
Neonode (NEON) Sweden $0.023B 0.00
Smith Micro Software (SMSI) United States $0.021B 0.00
Wetouch Technology (WETH) $0.020B 0.00
GSE Systems (GVP) United States $0.010B 0.00
SAP SE (SAP) Germany $0.000B 47.70